Regional Weather Roundup
Issued by NWS Northern Indiana

Home | Current Version | Previous Version | Text Only | Print | Product List | Glossary On
Versions: 1 2 3 4 5 6 7 8 9 10 11 12 13 14 15 16 17 18 19 20 21 22 23 24 25 26 27 28 29 30 31 32 33 34 35 36 37 38 39 40 41 42 43 44 45 46 47 48 49 50
000
ASUS43 KIWX 162301
RWRIWX

KIWX WEATHER ROUNDUP
NATIONAL WEATHER SERVICE NORTHERN INDIANA
700 PM EDT WED AUG 16 2017

NOTE: "FAIR" INDICATES FEW OR NO CLOUDS BELOW 12,000 FEET WITH NO
SIGNIFICANT WEATHER AND/OR OBSTRUCTIONS TO VISIBILITY.

* THESE STATIONS ARE NOT UNDER NWS QUALITY CONTROL. THEY ALSO MAY NOT
  REPORT WEATHER SUCH AS PRECIPITATION OR FOG.

INZ001>027-170000-
NORTHERN INDIANA

CITY           SKY/WX    TMP DP  RH WIND       PRES   REMARKS
GARY*          CLOUDY    84  70  61 S5        29.90F
MICHIGAN CITY* CLOUDY    82  68  61 S3        29.92F
SOUTH BEND     SUNNY     84  68  58 S10       29.93F
GOSHEN         MOSUNNY   85  65  51 S6        29.94S
MONTICELLO*    CLOUDY    84  71  65 S6        29.92F
WARSAW*        MOSUNNY   84  64  51 S3        29.95R
FORT WAYNE     MOSUNNY   87  65  47 S8        29.96R
PERU/GRISSOM   PTSUNNY   84  72  66 S6        29.93F

$$
INZ028>050-170000-
CENTRAL INDIANA

CITY           SKY/WX    TMP DP  RH WIND       PRES   REMARKS
LAFAYETTE      CLOUDY    84  72  67 S7        29.91F
KOKOMO*        MOSUNNY   82  71  69 SE6       29.95F
MUNCIE*        MOSUNNY   88  67  49 SW5       29.96S
INDIANAPOLIS   PTSUNNY   86  69  56 S13       29.94S

$$
MIZ043>046-050>051-056>058-064>065-071>073-077>080-170000-
SOUTHWEST LOWER MICHIGAN

CITY           SKY/WX    TMP DP  RH WIND       PRES   REMARKS
BATTLE CREEK   MOSUNNY   85  63  47 S9        29.96S
BENTON HARBOR  SUNNY     85  66  53 SE7       29.91F
COLDWATER*     PTSUNNY   83  63  50 SE7       29.96S
HILLSDALE*     SUNNY     82  63  51 SE6       29.98S
HOLLAND        SUNNY     85  66  53 SE7       29.93F
GRAND RAPIDS   MOSUNNY   85  63  47 SE9       29.94S
KALAMAZOO      MOSUNNY   85  62  46 S5        29.94F
STURGIS*       SUNNY     84  66  54 S7        29.95S
THREE RIVERS*  FAIR      87  64  47 SE7       29.95S

$$
OHZ001>008-015>018-024>025-170000-
NORTHWEST OHIO

CITY           SKY/WX    TMP DP  RH WIND       PRES   REMARKS
DEFIANCE       PTSUNNY   84  66  54 E8        29.96S
FINDLAY        MOSUNNY   86  65  49 E8        29.96F
TOLEDO EXPRESS SUNNY     82  66  58 E9        29.97S
TOLEDO METCALF SUNNY     79  63  57 E13       29.99F
LIMA           PTSUNNY   85  69  58 E5        29.97S

$$
AND FOR LAKE MICHIGAN COASTAL AND OPEN LAKE BUOY OBSERVATIONS

STATION/POSITION TEMP    WIND        PRES    VSBY  WAVE
                 AIR SEA DIR/SP/G                  HT/PER
                 (F)     (DEG/KT/KT) (MB)    (MI)  (FT/S)
CALUMET HARBOR    79     220/  5/  9 1012.4R
MICHIGAN CITY     85     170/ 11/ 14   N/A
BURNS HARBOR      85     180/  6/ 12 1012.9F
SAINT JOSEPH      79      20/  5/  8 1013.9
SOUTH LAKE BUOY   74 73   50/ 10/ 12 1012.9          1
4 MI NW BRIDGMAN  80 76  190/  4/  8 1012.3F         1
MICHIGAN CITY     80 76  180/  6/  8   N/A           1/ 2

$$
&&




USA.gov is the U.S. government's official web portal to all federal, state and local government web resources and services.